Regional Weather Roundup
Issued by NWS Goodland, KS

Home | Current Version | Previous Version | Graphics & Text | Print | Product List | Glossary On
Versions: 1 2 3 4 5 6 7 8 9 10 11 12 13 14 15 16 17 18 19 20 21 22 23 24 25 26 27 28 29 30 31 32 33 34 35 36 37 38 39 40 41 42 43 44 45 46 47 48 49 50
000
ASUS43 KGLD 061608
RWRGLD

GOODLAND FORECAST AREA HOURLY WEATHER ROUNDUP
NATIONAL WEATHER SERVICE GOODLAND KS
1000 AM MDT MON JUL 06 2015

...OFFICIAL OBSERVATIONS...

CITY           SKY/WX    TMP DP  RH WIND       PRES   REMARKS
GOODLAND KS    CLOUDY    63  61  93 N21G28    30.11R FOG
HILL CITY KS   CLOUDY    74  68  81 N22       29.97R
IMPERIAL NEB   CLOUDY    67  58  72 N17G29    30.13R
MCCOOK NEB     CLOUDY    69  62  78 N22G30    30.05R
AKRON CO       CLOUDY    62  58  86 N18G25    30.22R
BURLINGTON CO  CLOUDY    64  59  83 NE17G25   30.15R
LIMON CO       CLOUDY    62  58  86 N16       30.23S
$$

...UNOFFICIAL OBSERVATIONS...

CITY           SKY/WX    TMP DP  RH WIND       PRES   REMARKS
COLBY KS       CLOUDY    68  64  88 N24       30.08R
GOVE KS          N/A     70  32  24 MISG        N/A
NORTON KS      CLOUDY    68  61  77 N18G28    30.00R
SHARON SPRINGS   N/A     66  61  83 N20G28      N/A
KIT CARSON CO    N/A     66  59  78 MISG        N/A
YUMA CO          N/A     65  59  80 NE15        N/A
$$


USA.gov is the U.S. government's official web portal to all federal, state and local government web resources and services.